Weather History for Louisburg, NC

Change the Weather History Date:

Thursday, November 1, 2012

  Actual Average (KRDU) Record (KRDU)
Temperature  
Mean Temperature 48 °F 56 °F  
Max Temperature 55 °F 68 °F 88 °F (1950)
Min Temperature 42 °F 45 °F 26 °F (1954)
Degree Days  
Heating Degree Days 16 9  
Month to date heating degree days 9  
Since 1 July heating degree days 198  
Cooling Degree Days 0 1  
Month to date cooling degree days 1  
Year to date cooling degree days 1721  
Moisture  
Dew Point 35 °F    
Average Humidity 62    
Maximum Humidity 76    
Minimum Humidity 44    
Precipitation  
Precipitation 0.00 in 0.11 in 1.89 in (1897)
Month to date precipitation 0.11  
Year to date precipitation 37.26  
Sea Level Pressure  
Sea Level Pressure 29.78 in    
Wind  
Wind Speed 3 mph (West)    
Max Wind Speed 10 mph    
Max Gust Speed 16 mph    
Visibility 10 miles    
Events      
T = Trace of Precipitation, MM = Missing Value Source: NWS Daily Summary

Daily Weather History Graph

Daily Weather History Graph

Search for Another Location

Airport:

Trip Planner

Search our weather history database for the weather conditions in past years. The results will help you decide how hot, cold, wet, or windy it might be!

Date:

Astronomy

Nov. 01, 2012 Rise Set
Actual Time 7:36 AM EDT 6:16 PM EDT
Civil Twilight 7:09 AM EDT 6:43 PM EDT
Nautical Twilight 6:39 AM EDT 7:13 PM EDT
Astronomical Twilight 6:09 AM EDT 7:43 PM EDT
Moon 8:16 PM EDT 10:03 AM EDT
Length of Visible Light 11h 33m
Length of Day
10h 40m
Waning Gibbous, 93% of the Moon is Illuminated
Nov 1
Waning Gibbous
Nov 6
Last Quarter
Nov 13
New
Nov 20
First Quarter
Nov 28
Full

Hourly Weather History & Observations

Time (EDT) Temp. Windchill Dew Point Humidity Pressure Visibility Wind Dir Wind Speed Gust Speed Precip Events Conditions
12:15 AM 44.6 °F 42.2 °F 33.8 °F 66% 29.77 in 10.0 mi WSW 4.6 mph - N/A   Mostly Cloudy
12:35 AM 44.6 °F - 35.6 °F 71% 29.76 in 10.0 mi Calm Calm - N/A   Scattered Clouds
12:55 AM 44.6 °F 43.1 °F 35.6 °F 71% 29.77 in 10.0 mi SW 3.5 mph - N/A   Clear
1:15 AM 42.8 °F 41.1 °F 33.8 °F 70% 29.77 in 10.0 mi SW 3.5 mph - N/A   Clear
1:35 AM 42.8 °F 41.1 °F 33.8 °F 70% 29.77 in 10.0 mi SW 3.5 mph - N/A   Scattered Clouds
1:55 AM 42.8 °F 41.1 °F 33.8 °F 70% 29.77 in 10.0 mi WSW 3.5 mph - N/A   Clear
2:15 AM 42.8 °F - 33.8 °F 70% 29.77 in 10.0 mi Calm Calm - N/A   Clear
2:35 AM 42.8 °F 41.1 °F 33.8 °F 70% 29.76 in 10.0 mi WSW 3.5 mph - N/A   Clear
3:15 AM 42.8 °F - 33.8 °F 70% 29.76 in 10.0 mi Calm Calm - N/A   Mostly Cloudy
3:35 AM 42.8 °F - 33.8 °F 70% 29.76 in 10.0 mi Calm Calm - N/A   Overcast
3:55 AM 42.8 °F - 33.8 °F 70% 29.76 in 10.0 mi Calm Calm - N/A   Scattered Clouds
4:15 AM 42.8 °F - 35.6 °F 76% 29.75 in 10.0 mi Calm Calm - N/A   Clear
4:35 AM 42.8 °F - 35.6 °F 76% 29.74 in 10.0 mi Calm Calm - N/A   Clear
4:55 AM 42.8 °F - 35.6 °F 76% 29.75 in 10.0 mi Calm Calm - N/A   Clear
5:15 AM 42.8 °F 41.1 °F 35.6 °F 76% 29.75 in 10.0 mi West 3.5 mph - N/A   Clear
5:35 AM 42.8 °F - 35.6 °F 76% 29.75 in 10.0 mi Calm Calm - N/A   Clear
6:15 AM 42.8 °F 41.1 °F 35.6 °F 76% 29.75 in 10.0 mi West 3.5 mph - N/A   Clear
6:35 AM 42.8 °F 40.1 °F 35.6 °F 76% 29.76 in 10.0 mi West 4.6 mph - N/A   Clear
6:55 AM 42.8 °F - 35.6 °F 76% 29.76 in 10.0 mi Calm Calm - N/A   Clear
7:15 AM 42.8 °F 41.1 °F 33.8 °F 70% 29.77 in 10.0 mi West 3.5 mph - N/A   Clear
7:35 AM 42.8 °F 41.1 °F 33.8 °F 70% 29.77 in 10.0 mi WNW 3.5 mph - N/A   Clear
8:35 AM 44.6 °F 43.1 °F 35.6 °F 71% 29.78 in 10.0 mi WNW 3.5 mph - N/A   Clear
8:55 AM 46.4 °F 45.2 °F 33.8 °F 62% 29.78 in 10.0 mi NW 3.5 mph - N/A   Clear
9:35 AM 48.2 °F - 35.6 °F 62% 29.79 in 10.0 mi Calm Calm - N/A   Clear
9:55 AM 50.0 °F - 35.6 °F 58% 29.79 in 10.0 mi West 3.5 mph - N/A   Clear
10:15 AM 50.0 °F - 33.8 °F 54% 29.80 in 10.0 mi WNW 4.6 mph - N/A   Clear
10:35 AM 51.8 °F - 33.8 °F 50% 29.80 in 10.0 mi West 8.1 mph - N/A   Clear
10:55 AM 51.8 °F - 33.8 °F 50% 29.79 in 10.0 mi WNW 4.6 mph - N/A   Clear
11:15 AM 51.8 °F - 33.8 °F 50% 29.80 in 10.0 mi NW 5.8 mph - N/A   Clear
11:35 AM 53.6 °F - 33.8 °F 47% 29.80 in 10.0 mi WNW 6.9 mph - N/A   Clear
11:55 AM 53.6 °F - 33.8 °F 47% 29.79 in 10.0 mi WNW 8.1 mph - N/A   Scattered Clouds
12:15 PM 53.6 °F - 33.8 °F 47% 29.79 in 10.0 mi West 8.1 mph - N/A   Scattered Clouds
12:35 PM 53.6 °F - 33.8 °F 47% 29.79 in 10.0 mi West 4.6 mph - N/A   Mostly Cloudy
12:55 PM 53.6 °F - 33.8 °F 47% 29.78 in 10.0 mi West 4.6 mph 16.1 mph N/A   Mostly Cloudy
1:15 PM 55.4 °F - 33.8 °F 44% 29.76 in 10.0 mi WNW 10.4 mph 16.1 mph N/A   Mostly Cloudy
1:35 PM 53.6 °F - 33.8 °F 47% 29.76 in 10.0 mi West 5.8 mph - N/A   Mostly Cloudy
2:15 PM 53.6 °F - 33.8 °F 47% 29.75 in 10.0 mi NW 5.8 mph - N/A   Overcast
2:35 PM 53.6 °F - 33.8 °F 47% 29.74 in 10.0 mi NW 5.8 mph - N/A   Overcast
2:55 PM 53.6 °F - 33.8 °F 47% 29.74 in 10.0 mi NNW 5.8 mph - N/A   Overcast
3:15 PM 53.6 °F - 33.8 °F 47% 29.74 in 10.0 mi WNW 4.6 mph - N/A   Overcast
3:35 PM 55.4 °F - 33.8 °F 44% 29.75 in 10.0 mi West 5.8 mph - N/A   Overcast
4:15 PM 55.4 °F - 33.8 °F 44% 29.75 in 10.0 mi WNW 4.6 mph - N/A   Overcast
4:35 PM 55.4 °F - 33.8 °F 44% 29.75 in 10.0 mi West 5.8 mph - N/A   Overcast
5:15 PM 53.6 °F - 33.8 °F 47% 29.76 in 10.0 mi West 6.9 mph - N/A   Overcast
5:35 PM 53.6 °F - 33.8 °F 47% 29.77 in 10.0 mi WNW 3.5 mph - N/A   Overcast
5:55 PM 51.8 °F - 33.8 °F 50% 29.77 in 10.0 mi West 3.5 mph - N/A   Mostly Cloudy
6:15 PM 51.8 °F - 35.6 °F 54% 29.78 in 10.0 mi Calm Calm - N/A   Scattered Clouds
6:35 PM 50.0 °F - 35.6 °F 58% 29.79 in 10.0 mi WSW 3.5 mph - N/A   Scattered Clouds
6:55 PM 50.0 °F - 35.6 °F 58% 29.79 in 10.0 mi Calm Calm - N/A   Clear
7:15 PM 48.2 °F - 35.6 °F 62% 29.80 in 10.0 mi West 3.5 mph - N/A   Clear
7:35 PM 46.4 °F - 35.6 °F 66% 29.81 in 10.0 mi Calm Calm - N/A   Clear
7:55 PM 46.4 °F - 35.6 °F 66% 29.81 in 10.0 mi Calm Calm - N/A   Clear
8:15 PM 44.6 °F - 37.4 °F 76% 29.82 in 10.0 mi Calm Calm - N/A   Clear
8:35 PM 44.6 °F - 35.6 °F 71% 29.82 in 10.0 mi Calm Calm - N/A   Clear
8:55 PM 44.6 °F 43.1 °F 35.6 °F 71% 29.82 in 10.0 mi WNW 3.5 mph - N/A   Clear
9:15 PM 44.6 °F - 35.6 °F 71% 29.83 in 10.0 mi Calm Calm - N/A   Clear
9:35 PM 44.6 °F - 35.6 °F 71% 29.84 in 10.0 mi Calm Calm - N/A   Clear
9:55 PM 42.8 °F - 35.6 °F 76% 29.84 in 10.0 mi Calm Calm - N/A   Clear
10:15 PM 42.8 °F - 35.6 °F 76% 29.84 in 10.0 mi Calm Calm - N/A   Clear
10:35 PM 42.8 °F - 35.6 °F 76% 29.84 in 10.0 mi Calm Calm - N/A   Clear
11:55 PM - - - N/A% 29.85 in 10.0 mi Calm Calm - N/A   Clear